Zurück zum Katalog

BLOCK DM-SL R/B

AktivGTO
NORAD 33208·ROCKET BODY· XX

Gestartet Jul 16, 2008 von Sea Launch Platform

Loading…

TLE

AlterndSource: Space-Track

Epoche: Sep 14, 2026, 08:42 UTC

1 33208U 08035B   26257.36295175 -.00000081  00000-0  20139-2 0  9999
2 33208   0.0939 180.4959 7130551 162.8983  64.8687  2.26260603150152

Verfolge BLOCK DM-SL R/B in Echtzeit mit AllMySat

Download on the App Store